Location: Bratsk-Energetik
(56.3300°N, 101.7600°E)
Time: 14:28:54
(UTC+08:00)

ISS - Pass Details

Date: 20 July 2018
Orbit: 402 x 408 km, 51.6° (Epoch: 16 July)

Event Time Altitude Azimuth Distance (km) Brightness Sun altitude
Rises 00:26:45 0° 236° (WSW) 2,320 -0.2 -12.1°
Reaches altitude 10° 00:28:59 10° 225° (SW) 1,463 -1.3 -12.2°
Maximum altitude 00:31:51 28° 164° (SSE) 801 -2.9 -12.3°
Drops below altitude 10° 00:34:43 10° 103° (ESE) 1,469 -1.2 -12.3°
Sets 00:36:58 0° 92° (E) 2,331 -0.1 -12.4°
